Welcome to the New NWS' Forecast!
Most changes are behind the scenes, but click here for differences you might notice.
Latest weather observations around

Vaiden Fld Airport (KA08)

Using International System of Units (Switch to English Units)
Date/ Time (CDT) Wind (kph) Vis. (km) Weather Sky Cond. Temp (°C) Rel. Humidity Wind Chill (°C) Heat Index (°C) Pressure Precip. (cm)
Air Dwpt 6 hour Altimeter (hPa) Sea level (hPa) 1 hr 3 hr 6 hr
Max Min
Notice The following observation data may not be complete
Aug 15 22:35   16.09 Clear CLR          %              
Aug 15 22:15 SSE 8 16.09 Clear CLR 26 25     93%   27 1017.6        
Aug 15 21:55 SSE 11 16.09 Clear CLR 26 25     93%   28 1017.6        
Aug 15 21:35 SSE 9 16.09 Clear CLR 26 25     91%   28 1017.3        
Aug 15 21:15 Calm 16.09 Clear CLR 26 24     90%   28 1017.3        
Aug 15 20:55 Calm 16.09 Clear CLR 26 24     86%   29 1017.3        
Aug 15 20:35 Calm 16.09 Clear CLR 27 24     81%   31 1016.9        
Aug 15 20:15 Calm 16.09 Clear CLR 28 24     79%   31 1016.9        
Aug 15 19:55 Calm 16.09 Clear CLR 28 24     79%   31 1016.9        
Aug 15 19:35 ESE 5 16.09 Clear CLR 29 23     72%   33 1016.6        
Aug 15 19:15 SSE 5 16.09 Clear CLR 29 23     71%   33 1016.6        
Aug 15 18:55 SE 5 16.09 Clear CLR 30 23     66%   35 1016.3        
Aug 15 18:35 SE 9 16.09 Clear CLR 31 23     63%   36 1016.3        
Aug 15 18:15 S 8 16.09 Clear CLR 32 23     59%   36 1016.3        
Aug 15 17:55 SSE 8 16.09 Clear CLR 32 23     58%   36 1016.3        
Aug 15 17:35 S 8 16.09 Clear CLR 33 22     53%   36 1016.3        
Aug 15 17:15 SSE 13 16.09 Clear CLR 33 22     54%   36 1016.3        
Aug 15 17:00 SSE 11 16.09 Clear CLR 33 23     56%   37 1016.6        
Aug 15 14:50 ESE 11 16.09 Partly Cloudy SCT044 33 22     52%   37 1016.9        
Aug 15 12:10 ESE 8 16.09 Clear CLR 32 22     56%   35 1018.3        
Aug 15 11:55 SE 5 16.09 Clear CLR 31 22     59%   35 1018.3        
Aug 15 11:35 SSE 9 16.09 Clear CLR 31 23     63%   35 1018.3        
Aug 15 11:20 Calm 16.09 Clear CLR 30 23     65%   34 1018.3        
Aug 15 10:55 Calm 16.09 Clear CLR 30 22     65%   33 1018.6        
Aug 15 10:35 Calm 16.09 Clear CLR 29 23     71%   32 1018.6        
Aug 15 09:55 Calm 16.09 Clear CLR 27 23     80%   29 1018.6        
Aug 15 09:35 Calm 16.09 Clear CLR 25 23     89%   26 1018.6        
Aug 15 09:15 Calm 16.09 Partly Cloudy SCT004 24 24     96%   25 1018.6        
Aug 15 08:55   16.09 Mostly Cloudy BKN004 24 24     100%   25 1018.3        
Aug 15 08:35 Calm 11.27 Cloudy OVC002 23 23     100%   24 1018.3        
Aug 15 08:15 Calm 2.41 Fog/Mist OVC002 22 22     100%   23 1018.3        
Aug 15 07:55   0.8 Fog OVC002 22 22     100%   23 1018.3        
Aug 15 07:35 SSE 9 0.4 Fog OVC002 21 21     100%   22 1018        
Aug 15 07:15   4.02 Fog/Mist OVC002 21 21     100%     1018        
Aug 15 06:55 S 11 0.4 Fog OVC002 21 21     100%     1017.6        
Aug 15 06:35 SSW 11 0.8 Fog OVC002 21 21     100%     1017.6        
Aug 15 06:15 SSW 13 0.4 Fog OVC002 21 21     100%     1017.3        
Aug 15 05:55 SSE 5 0.4 Fog OVC002 21 21     100%     1017.3        
Aug 15 05:35 S 8 0.8 Fog OVC002 21 21     100%     1016.9        
Aug 15 05:15 Calm 0.8 Fog OVC002 21 21     100%     1017.3        
Aug 15 04:55 Calm 0.8 Fog OVC002 21 21     100%     1016.9        
Aug 15 04:35 Calm 0.8 Fog OVC002 21 21     100%     1016.6        
Aug 15 04:15 Calm 0.8 Fog OVC002 21 21     100%     1016.9        
Aug 15 03:55 Calm 1.21 Fog/Mist OVC002 21 21     100%     1016.6        
Aug 15 03:35 Calm 0.8 Fog OVC002 21 21     100%   22 1016.6        
Aug 15 03:10 Calm 0.4 Fog OVC002 21 21     100%   22 1016.9        
Aug 15 02:55 Calm 0.4 Fog OVC002 22 22     100%   22 1016.9        
Aug 15 02:35 Calm 0.4 Fog OVC002 22 22     100%   22 1016.9        
Aug 15 02:15 Calm 1.21 Fog/Mist OVC002 22 22     100%   22 1016.9        
Aug 15 01:55 Calm 8.05 Fog/Mist SCT002 22 22     100%   23 1016.9        
Aug 15 01:35 Calm 8.05 Fog/Mist SCT002 22 22     100%   23 1016.9        
Aug 15 01:15 Calm 11.27 Clear CLR 22 22     100%   23 1016.9        
Aug 15 00:55 Calm 11.27 Clear CLR 22 22     100%   23 1016.9        
Aug 15 00:35 Calm 11.27 Clear CLR 22 22     100%   23 1017.3        
Aug 15 00:15 Calm 16.09 Clear CLR 23 23     100%   24 1017.3        
Aug 14 23:55 Calm 11.27 Clear CLR 23 23     100%   24 1017.3        
Aug 14 23:35 Calm 11.27 Clear CLR 23 23     100%   24 1016.9        
Aug 14 23:15 Calm 11.27 Clear CLR 23 23     100%   24 1017.3        
Aug 14 22:55 Calm 11.27 Clear CLR 23 23     100%   24 1016.9        
Aug 14 22:35 Calm 11.27 Clear CLR 23 23     100%   24 1016.9        
Aug 14 22:15 Calm 16.09 Clear CLR 23 23     100%   24 1017.3        
Aug 14 21:55 SE 5 16.09 Clear CLR 24 24     100%   25 1017.3        
Aug 14 21:35 SSE 8 16.09 Clear CLR 24 24     100%   25 1017.3        
Aug 14 21:15 S 5 16.09 Clear CLR 24 24     100%   25 1016.9        
Aug 14 20:55 Calm 16.09 Clear CLR 24 24     100%   25 1016.6        
Aug 14 20:35 Calm 16.09 Clear CLR 24 24     100%   25 1015.9        
Aug 14 20:15 SE 5 16.09 Clear CLR 24 24     100%   25 1015.9        
Aug 14 19:55 S 5 16.09 Clear CLR 24 24     100%   25 1015.9        
Aug 14 19:35 Calm 16.09 Clear CLR 25 24     98%   26 1015.9        
Aug 14 19:15 Calm 16.09 Clear CLR 25 24     92%   26 1015.6        
Aug 14 18:55 SE 5 16.09 Clear CLR 26 24     90%   26 1015.6        
Aug 14 18:35 Calm 16.09 Clear CLR 26 23     82%   29 1015.6        
Aug 14 18:15 SE 8 16.09 Clear CLR 27 23     81%   29 1015.6        
Aug 14 17:55   16.09 Clear CLR 27 22     73%   30 1015.9        
Aug 14 17:35   1.61 Light Rain BKN050 BKN070 27 23     76%   30 1016.3        
Aug 14 17:15 SE 21 16.09 Cloudy OVC050 28 22     72%   31 1015.6        
Aug 14 16:55 ESE 5 16.09 Cloudy OVC050 29 22     67%   32 1015.6        
Aug 14 16:35 NNE 8 16.09 Cloudy SCT050 BKN060 OVC120 32 22     54%   36 1015.2        
Aug 14 16:15 WNW 8 16.09 Mostly Cloudy SCT050 SCT065 BKN120 33 22     53%   37 1015.2        
Aug 14 15:55 W 15 16.09 Partly Cloudy SCT055 SCT085 33 22     52%   37 1015.2        
Aug 14 15:35 W 9 16.09 Partly Cloudy SCT055 33 22     52%   37 1015.2        
Aug 14 15:15 W 9 16.09 Clear CLR 33 22     52%   37 1015.2        
Aug 14 14:55 WNW 9 16.09 Partly Cloudy SCT049 33 22     54%   37 1015.2        
Aug 14 14:35 NNE 8 16.09 Partly Cloudy SCT047 33 22     53%   37 1015.6        
Aug 14 14:15 NW 9 16.09 Clear CLR 32 22     54%   36 1015.6        
Aug 14 13:55 NW 11 16.09 Clear CLR 32 23     58%   37 1015.9        
Aug 14 13:35 W 9 16.09 Clear CLR 33 22     53%   37 1016.3        
Aug 14 13:15 NNW 9 16.09 Clear CLR 32 22     58%   35 1016.6        
Aug 14 12:55 NW 13 16.09 Clear CLR 31 22     60%   35 1016.9        
Aug 14 12:35 NNW 8 16.09 Clear CLR 31 23     62%   36 1016.9        
Notice The following observation data may not be complete
Aug 14 12:15   16.09 Clear CLR          %              
Aug 14 11:55 W 9 16.09 Clear CLR 30 23     65%   35 1017.3        
Aug 14 11:35 WNW 9 16.09 Clear CLR 30 24     68%   35 1017.3        
Aug 14 11:15 WNW 9 16.09 Clear CLR 29 24     75%   32 1017.6        
Aug 14 10:10 W 8 16.09 Clear CLR 26 24     89%   28 1017.6        
Aug 14 09:55 WNW 8 16.09 Clear CLR 26 24     89%   28 1017.6        
Aug 14 09:30 Calm 16.09 Clear CLR 25 24     91%   26 1017.3        
Aug 14 09:15 Calm 16.09 Clear CLR 25 24     91%   26 1017.3        
Aug 14 08:55 Calm 16.09 Clear CLR 25 24     95%   25 1016.9        
Aug 14 08:35 Calm 16.09 Clear CLR 24 24     99%   25 1017.3        
Aug 14 08:20 Calm 16.09 Clear CLR 24 24     100%   25 1016.9        
Aug 14 07:50 Calm 16.09 Clear CLR 23 23     100%   24 1016.9        
Aug 14 03:00 NW 5 16.09 Clear CLR 23 23     100%   23 1015.9        
Aug 14 01:55 NW 5 16.09 Clear CLR 23 23     100%   24 1016.3        
Aug 14 01:35 NW 5 16.09 Clear CLR 23 23     100%   24 1016.3        
Aug 14 01:15 NW 8 16.09 Clear CLR 23 23     100%   24 1016.3        
Aug 14 00:50 Calm 16.09 Clear CLR 23 23     100%   24 1016.6        
Aug 14 00:35 NW 5 16.09 Clear CLR 23 23     100%   24 1016.6        
Aug 14 00:15 Calm 16.09 Clear CLR 23 23     100%   24 1016.6        
Aug 13 23:55 WNW 5 16.09 Clear CLR 23 23     100%   24 1016.6        
Aug 13 23:35 Calm 16.09 Clear CLR 23 23     100%   24 1016.9        
Aug 13 22:35   16.09 Clear CLR 23 23     100%   24 1016.9        
Notice The following observation data may not be complete
Aug 13 22:15   16.09 Clear CLR          %              
Aug 13 21:55 Calm 16.09 Clear CLR 24 24     100%   25 1016.6        
Aug 13 21:35 Calm 16.09 Clear CLR 24 24     98%   25 1016.6        
Aug 13 21:10 Calm 16.09 Clear CLR 24 24     100%   25 1016.3        
Aug 13 20:55 Calm 16.09 Clear CLR 25 24     96%   26 1015.9        
Notice The following observation data may not be complete
Aug 13 20:35   16.09 Clear CLR          %              
Aug 13 20:15 WNW 5 16.09 Clear CLR 25 24     91%   26 1015.9        
Aug 13 19:55 W 5 16.09 Clear CLR 26 23     88%   26 1015.9        
Aug 13 19:35 Calm 16.09 Clear CLR 26 23     84%   28 1015.9        
Aug 13 19:15 Calm 16.09 Clear CLR 27 23     81%   29 1015.6        
Aug 13 18:55 WNW 5 16.09 Clear CLR 27 23     76%   30 1015.6       0
Aug 13 18:35 WNW 13 16.09 Clear CLR 27 22     75%   30 1015.6        
Aug 13 18:15 NW 11 16.09 Clear CLR 28 23     75%   30 1015.6        
Aug 13 17:55 WNW 13 16.09 Clear CLR 28 23     74%   31 1015.6        
Aug 13 17:35 WNW 9 16.09 Clear CLR 28 22     69%   31 1015.6        
Aug 13 17:15 W 5 16.09 Clear CLR 29 22     66%   31 1015.6        
Aug 13 16:50   16.09 Clear CLR 28 22     67%   31 1015.6        
Aug 13 16:35   16.09 Clear CLR 28 24     77%   32 1015.6        
Aug 13 16:15 W 8 16.09 Clear CLR 27 23     82%   29 1015.9        
Aug 13 15:35 SSE 11 11.27 Light Rain SCT047 BKN060 BKN075 27 24     86%   30 1015.9   0    
Aug 13 15:15 NNE 9 16.09 Mostly Cloudy SCT045 BKN050 BKN085 30 23     66%   33 1015.9        
Aug 13 14:35 NNW 9 16.09 Clear CLR 32 21     53%   35 1015.9        
Aug 13 14:15 WNW 9 16.09 Partly Cloudy SCT045 33 22     54%   37 1016.3        
Aug 13 13:55 NW 13 16.09 Partly Cloudy SCT043 SCT110 32 22     55%   36 1016.6        
Aug 13 13:35 WSW 8 16.09 Partly Cloudy SCT041 33 23     55%   38 1016.9        
Aug 13 13:15 W 8 16.09 Clear CLR 31 23     60%   35 1017.3        
Aug 13 12:55 Calm 16.09 Partly Cloudy SCT036 32 22     58%   35 1017.6        
Aug 13 12:35 WNW 8 16.09 Clear CLR 31 23     64%   35 1017.6        
Aug 13 12:15 WNW 8 16.09 Clear CLR 30 24     68%   35 1018        
Aug 13 11:55 Calm 16.09 Clear CLR 30 22     63%   34 1018.3        
Aug 13 11:35 W 5 16.09 Clear CLR 30 22     63%   33 1018.3        
Aug 13 11:15 Calm 16.09 Clear CLR 30 22     63%   33 1018.3        
Aug 13 10:55 Calm 16.09 Clear CLR 31 23     63%   35 1018.3        
Aug 13 10:35 Calm 16.09 Clear CLR 29 23     68%   33 1018.3        
Aug 13 10:15 Calm 16.09 Clear CLR 29 23     72%   32 1018.3        
Aug 13 09:55 Calm 16.09 Clear CLR 28 23     76%   31 1018.3        
Aug 13 09:35 Calm 16.09 Clear CLR 27 23     80%   30 1018.3        
Aug 13 07:35 WNW 17 16.09 Clear CLR 23 23     100%   24 1017.6        
Aug 13 06:55 WNW 13 16.09 Clear CLR 22 22     100%   22 1017.3        
Aug 13 06:35   11.27 Clear CLR 21 21     100%     1017.3        
Aug 13 06:15 NNW 5 16.09 Clear CLR 21 21     100%     1016.9        
Aug 13 05:55 WNW 17 16.09 Clear CLR 21 21     100%     1016.9        
Aug 13 02:35 Calm 16.09 Clear CLR 22 22     100%   23 1017.3        
Aug 13 02:15 Calm 16.09 Clear CLR 22 22     100%   23 1017.3        
Aug 13 01:55 Calm 16.09 Clear CLR 22 22     100%   23 1017.3        
Aug 13 01:35 Calm 16.09 Clear CLR 23 23     99%   24 1017.6        
Aug 13 01:15 Calm 16.09 Clear CLR 23 23     100%   23 1017.6        
Aug 13 00:10 Calm 16.09 Clear CLR 24 22     93%   24 1018.3        
Aug 12 23:35 NW 5 16.09 Clear CLR 24 23     91%   25 1018.3        
Aug 12 23:15 NNW 8 16.09 Clear CLR 24 23     98%   24 1018.3        
Aug 12 22:55 Calm 16.09 Clear CLR 24 23     98%   25 1018.3        
Aug 12 22:35 Calm 16.09 Clear CLR 24 23     91%   25 1018.3        
Aug 12 22:15 Calm 16.09 Clear CLR 24 23     90%   25 1018.3        
Aug 12 21:55 Calm 16.09 Clear CLR 25 23     89%   25 1018.3        
Aug 12 21:35 Calm 16.09 Clear CLR 24 23     94%   25 1018.3        
Aug 12 21:15 Calm 16.09 Clear CLR 24 23     98%   25 1017.6        
Aug 12 20:35 Calm 16.09 Clear CLR 24 24     98%   25 1016.9        
Aug 12 19:50 Calm 16.09 Clear CLR 24 23     94%   25 1016.3        
Notice The following observation data may not be complete
May 15 12:15   16.09 Partly Cloudy SCT075          %              
May 15 07:35 ESE 8 16.09 Clear CLR 22 19     83%   22 1014.6        
May 15 04:35 E 5 16.09 Clear   20 19     93%     1013.9        
May 15 00:35   16.09 Clear CLR 22 19     82%   23 1013.2        
May 14 23:55 SSE 5 16.09 Clear CLR 23 19     76%   24 1013.6        
May 13 20:35 Calm 16.09 Clear CLR 25 19     68%   26 1016.3        
May 13 15:35 NNW 5 16.09 Partly Cloudy SCT070 33 16     36%   33 1016.9        
May 13 15:15 W 11 16.09 Clear CLR 33 16     36%   33 1017.3        
May 13 14:35 N 9 16.09 Clear CLR 33 16     35%   33 1018        
May 13 08:15 NNW 9 16.09 Clear CLR 25 18     67%   25 1020        
May 13 06:15 Calm 16.09 Clear CLR 16 16     99%     1019.3        
May 13 04:55 Calm 16.09 Clear CLR 16 16     100%     1018        
May 12 21:35 Calm 16.09 Clear CLR 22 15     65%   22 1018.6        
May 12 17:15 SE 5 16.09 Clear CLR 32 12     30%   31 1018        
May 12 15:55 SSE 15 16.09 Clear   32 12     29%   31 1018.6        
May 12 05:35 Calm 16.09 Clear CLR 14 14     99%     1020        
May 12 01:55 Calm 16.09 Clear CLR 17 16     97%     1018.3        
Notice The following observation data may not be complete
May 12 00:35   16.09 Clear CLR          %              
May 11 23:55 SSW 13 16.09 Clear CLR 19 16     84%     1019        
May 11 22:15 Calm 16.09 Clear CLR 21 17     78%     1018.6        
Notice The following observation data may not be complete
May 11 11:15   16.09 Clear CLR          %              
Jun 11 22:55   16.09 Clear CLR 23 23     100%   24 1019.7        
Notice The following observation data may not be complete
Jun 11 18:15   11.27 Light Rain SCT046 SCT065 OVC110          %         0    
Notice The following observation data may not be complete
Jun 11 17:35   16.09 Light Rain SCT027 SCT032 OVC048   22      %     1018.3        
Jun 11 16:55 ESE 11 16.09 Mostly Cloudy BKN048 BKN055 31 21     55%   35 1017.3        
Jun 11 15:15 E 11 16.09 Partly Cloudy SCT050 31 20     52%   34 1018.3        
Notice The following observation data may not be complete
Jun 11 14:35   16.09 Mostly Cloudy BKN050          %              
Jun 11 10:15 SSE 17 16.09 Clear CLR 28 19     60%   29 1020.3        
Jun 10 10:15 SSE 5 16.09 Clear CLR 27 19     64%   28 1018        
Jun 10 08:55   0.4 Cloudy OVC080 24 20     76%   25 1018        
Jun 10 08:35 Calm 0.4 Cloudy OVC080 23 20     81%   24 1017.6        
Jun 10 03:55 Calm 16.09 Partly Cloudy SCT075 18 18     100%     1015.2        
Jun 10 02:35 Calm 16.09 Cloudy SCT065 OVC075 18 18     100%     1015.2        
Jun 10 01:55 S 11 16.09 Cloudy OVC075 18 18     97%     1015.2        
Notice The following observation data may not be complete
Jun 09 23:35   16.09 Clear CLR          %              
Notice The following observation data may not be complete
Jun 09 20:35   16.09 Clear CLR          %              
Jun 09 16:15 Calm 16.09 Clear CLR 28 14     43%   28 1013.2        
Jun 09 11:35   16.09 Clear CLR 26 15     51%   26 1015.2        
Jun 09 03:35 Calm 16.09 Clear CLR 15 15     97%     1012.2        
Jun 09 02:55 WNW 5 16.09 Clear   16 15     99%     1012.5        
Jun 09 02:35 Calm 16.09 Clear CLR 16 15     97%     1012.5        
Jun 09 00:15 NNW 9 16.09 Clear CLR 18 15     83%     1012.9        
Jun 08 23:55 NNW 5 16.09 Clear CLR 18 16     85%     1012.9        
Jun 08 16:50 NW 9 16.09 Clear CLR 27 14     45%   26 1011.2        
Jun 08 13:30 WNW 18 16.09 Partly Cloudy SCT050 26 15     50%   26 1012.5        
Jun 08 07:55 N 5 16.09 Clear   19 14     71%     1013.2        
Jun 08 03:15 N 9 16.09 Clear CLR 18 13     73%     1010.5        
Jun 07 17:50   16.09 Clear CLR 28 15     47%   28 1008.8        
Jun 07 08:15 N 11 16.09 Clear CLR 22 18     78%   22 1008.8        
Jun 06 14:55 NE 5 16.09 Rain SCT005 BKN047 OVC070 21 21     99%   22 1006.4   2    
Jun 06 09:15   16.09 Cloudy OVC005 24 23     94%   25 1008.1        
Jun 05 19:35 SSE 8 16.09 Light Rain SCT050 SCT065 BKN095 21 21     99%     1008.1   0